TimeEDT,TemperatureF,Dew PointF,Humidity,Sea Level PressureIn,VisibilityMPH,Wind Direction,Wind SpeedMPH,Gust SpeedMPH,PrecipitationIn,Events,Conditions,WindDirDegrees,DateUTC
12:53 AM,73.0,69.1,87,30.04,7.0,Calm,Calm,-,N/A,,Clear,0,2013-09-12 04:53:00
1:53 AM,72.0,68.0,87,30.01,7.0,Calm,Calm,-,N/A,,Clear,0,2013-09-12 05:53:00
2:53 AM,70.0,68.0,93,30.01,5.0,Calm,Calm,-,N/A,,Clear,0,2013-09-12 06:53:00
3:53 AM,70.0,68.0,93,30.00,4.0,Calm,Calm,-,N/A,,Clear,0,2013-09-12 07:53:00
4:15 AM,69.8,68.0,94,30.07,2.0,Calm,Calm,-,N/A,,Scattered Clouds,0,2013-09-12 08:15:00
4:19 AM,69.8,68.0,94,30.07,1.0,Calm,Calm,-,N/A,,Mist,0,2013-09-12 08:19:00
4:27 AM,69.8,68.0,94,30.07,0.5,Calm,Calm,-,N/A,Fog,Fog,0,2013-09-12 08:27:00
4:34 AM,69.8,68.0,94,30.07,0.2,Calm,Calm,-,N/A,Fog,Fog,0,2013-09-12 08:34:00
4:53 AM,69.1,66.9,93,30.01,0.2,West,3.5,-,N/A,Fog,Fog,280,2013-09-12 08:53:00
5:00 AM,68.0,66.2,94,30.07,0.5,West,3.5,-,0.01,Fog,Fog,270,2013-09-12 09:00:00
5:29 AM,68.0,66.2,94,30.07,1.5,West,4.6,-,0.01,,Scattered Clouds,270,2013-09-12 09:29:00
5:31 AM,68.0,66.2,94,30.07,3.0,West,4.6,-,0.01,,Scattered Clouds,280,2013-09-12 09:31:00
5:53 AM,68.0,66.9,96,30.00,4.0,WNW,4.6,-,0.01,,Clear,290,2013-09-12 09:53:00
6:53 AM,68.0,66.0,93,30.01,7.0,WNW,3.5,-,N/A,,Clear,300,2013-09-12 10:53:00
7:53 AM,69.1,66.9,93,30.01,5.0,Calm,Calm,-,N/A,,Overcast,0,2013-09-12 11:53:00
8:53 AM,71.1,66.9,87,30.01,8.0,NNW,4.6,-,N/A,,Clear,330,2013-09-12 12:53:00
9:53 AM,75.0,68.0,79,30.00,10.0,WNW,3.5,-,N/A,,Clear,290,2013-09-12 13:53:00
10:53 AM,81.0,66.9,62,29.99,10.0,Calm,Calm,-,N/A,,Clear,0,2013-09-12 14:53:00
11:53 AM,82.9,66.0,56,29.97,10.0,Calm,Calm,-,N/A,,Clear,0,2013-09-12 15:53:00
12:53 PM,84.9,66.9,55,29.95,10.0,North,3.5,-,N/A,,Mostly Cloudy,10,2013-09-12 16:53:00
1:53 PM,86.0,66.0,51,29.92,10.0,Variable,4.6,-,N/A,,Partly Cloudy,0,2013-09-12 17:53:00
2:53 PM,86.0,64.9,49,29.89,10.0,Variable,4.6,-,N/A,,Mostly Cloudy,0,2013-09-12 18:53:00
3:07 PM,77.0,69.8,78,29.95,1.5,WNW,11.5,-,0.07,Rain,Heavy Rain,300,2013-09-12 19:07:00
3:19 PM,78.8,71.6,78,29.94,3.0,West,4.6,-,0.10,Rain,Light Rain,260,2013-09-12 19:19:00
3:53 PM,84.0,70.0,63,29.88,10.0,West,6.9,-,0.10,Thunderstorm,Partly Cloudy,260,2013-09-12 19:53:00
4:42 PM,80.6,66.2,61,29.92,10.0,WSW,5.8,-,N/A,,Partly Cloudy,240,2013-09-12 20:42:00
4:53 PM,80.1,68.0,67,29.86,10.0,West,5.8,-,N/A,,Clear,270,2013-09-12 20:53:00
5:53 PM,79.0,69.1,72,29.85,10.0,Calm,Calm,-,N/A,,Clear,0,2013-09-12 21:53:00
6:53 PM,77.0,69.1,76,29.85,10.0,Calm,Calm,-,N/A,,Clear,0,2013-09-12 22:53:00
7:53 PM,75.0,69.1,82,29.84,10.0,Calm,Calm,-,N/A,,Clear,0,2013-09-12 23:53:00
8:53 PM,73.9,69.1,85,29.85,10.0,Calm,Calm,-,N/A,,Clear,0,2013-09-13 00:53:00
9:53 PM,73.0,69.1,87,29.84,10.0,West,4.6,-,N/A,,Clear,280,2013-09-13 01:53:00
10:53 PM,73.0,68.0,84,29.84,10.0,West,4.6,-,N/A,,Clear,260,2013-09-13 02:53:00
11:53 PM,72.0,66.0,81,29.82,10.0,West,3.5,-,0.00,,Partly Cloudy,260,2013-09-13 03:53:00